{"data":{"norad_id":67264,"intl_designator":"2025-313S","name":"KOWSAR 1.5","alt_names":[],"object_type":"PAYLOAD","status":"ACTIVE","operator":null,"country":"IRAN","launch_date":"2025-12-28","launch_site_code":"VOSTO","launch_vehicle":null,"mission":null,"orbit_class":"UNKNOWN","rcs_meters":null,"size_class":null,"mass_kg":null,"dimensions":null,"purposes":[],"wikipedia_slug":null,"has_3d_model":false,"image_url":null,"decayed_at":null,"tle_current":{"epoch":"2026-05-24T18:41:55.106592Z","epoch_age_seconds":104255,"freshness":"FRESH","line1":"1 67264U 25313S   26144.77911003  .00005257  00000+0  23246-3 0  9992","line2":"2 67264  97.4026 219.8613 0016608  92.7925 267.5212 15.22002020 22384","mean_motion":15.2200202,"eccentricity":0.0016608,"inclination_deg":97.4026,"raan_deg":219.8613,"arg_perigee_deg":92.7925,"mean_anomaly_deg":267.5212,"bstar":0.00023246,"rev_number":2238,"period_min":94.612226598753,"perigee_km":488.37968276597,"apogee_km":511.22544682439,"semimajor_km":6877.9395647952,"source":"CELESTRAK","updated_at":"2026-05-25T13:38:06.848262Z"}}}